User: anonymous   Login
Location: Ottawa
(45.4170°N, 75.7000°W)
Time: 15:44:09
(UTC-04:00)
Language:

Aureole 3 Rocket - Orbit

View from above orbital plane
View from above orbital plane
View from above satellite
View from above satellite

Ground track
Ground track

The orbit data is extracted from the following two-line orbital elements,

1 12849U 81094B   17235.18198578  .00000196  00000-0  17155-4 0  9990
2 12849  82.4927 115.3463 0902098 234.8571 116.4810 13.50184461750960
Epoch (UTC): 23 August 2017 04:22:03
Eccentricity: 0.0902098
inclination: 82.4927°
perigee height: 399 km
apogee height: 1743 km
right ascension of ascending node: 115.3463°
argument of perigee: 234.8571°
revolutions per day: 13.50184461
mean anomaly at epoch: 116.4810°
orbit number at epoch: 75096

The dashed part of the orbit path shows where the satellite is in the earth's shadow,  

DLR